Location: Wien
(48.2082°N, 16.3738°E)
Time: 08:24:42
(UTC+01:00)

CUBEBUG 2 - Visible Passes

Search period start: 25 March 2019 00:00
Search period end: 04 April 2019 01:00
Orbit: 586 x 699 km, 97.6° (Epoch: 24 March)

Date Brightness Start Highest point End Pass type
(mag) Time Alt. Az. Time Alt. Az. Time Alt. Az.
25 Mar ? 04:27:31 10° ENE 04:28:27 11° E 04:29:24 10° E visible
26 Mar ? 04:49:48 10° NE 04:53:00 18° E 04:56:13 10° SE visible
29 Mar ? 04:27:30 10° ENE 04:28:50 11° E 04:30:10 10° ESE visible
30 Mar ? 04:50:04 10° NE 04:53:23 19° E 04:56:43 10° SE visible
02 Apr ? 05:27:37 10° ENE 05:29:13 12° E 05:30:49 10° ESE visible
03 Apr ? 05:50:21 10° NE 05:53:46 19° E 05:57:11 10° SE visible
